EW1232 Weather Reports


time (UTC)temp
F
wind
direction
speed
knots
gust
knots
rain 1hr
in
rain 24hr
in
rain mn
in
humidity
%
barometer
mb
20260505010057 70 207 4.3 11.3 0.00 0.00 0.00 53 1005.8
20260505005520 70 190 4.3 11.3 0.00 0.00 0.00 52 1005.7
20260505005023 70 200 5.2 10.4 0.00 0.00 0.00 52 1005.7
20260505004535 71 196 4.3 10.4 0.00 0.00 0.00 51 1005.7
20260505004019 71 183 4.3 10.4 0.00 0.00 0.00 51 1005.7
20260505003519 71 172 5.2 13.0 0.00 0.00 0.00 51 1005.7
20260505003046 71 205 5.2 16.5 0.00 0.00 0.00 50 1005.8
20260505002520 72 255 5.2 16.5 0.00 0.00 0.00 49 1005.8
20260505002019 72 251 7.0 16.5 0.00 0.00 0.00 49 1005.8
20260505001539 72 187 5.2 13.9 0.00 0.00 0.00 48 1005.9
20260505001023 72 205 4.3 14.8 0.00 0.00 0.00 47 1005.9
20260505000520 73 219 6.1 19.1 0.00 0.00 0.00 47 1005.9
20260505000043 73 234 7.8 19.1 0.00 0.00 0.00 46 1005.9
20260504235519 73 196 7.8 19.1 0.00 0.00 0.00 46 1006.0
20260504235019 73 184 8.7 19.1 0.00 0.00 0.00 46 1006.1
20260504234534 73 238 8.7 19.1 0.00 0.00 0.00 46 1006.1
20260504234018 73 202 7.8 17.4 0.00 0.00 0.00 47 1006.1
20260504233518 73 205 7.8 16.5 0.00 0.00 0.00 50 1006.1
20260504233041 73 292 5.2 13.9 0.00 0.00 0.00 52 1006.0
20260504232519 73 177 5.2 9.6 0.00 0.00 0.00 53 1006.1
20260504232018 73 144 3.5 7.8 0.00 0.00 0.00 53 1006.1
20260504231535 73 175 3.5 7.8 0.00 0.00 0.00 53 1006.1
20260504231038 73 178 3.5 7.8 0.00 0.00 0.00 52 1006.1
20260504230521 73 153 3.5 7.0 0.00 0.00 0.00 52 1006.3
20260504230034 73 198 2.6 8.7 0.00 0.00 0.00 52 1006.2
20260504225520 73 184 3.5 8.7 0.00 0.00 0.00 52 1006.4
20260504225019 73 191 3.5 11.3 0.00 0.00 0.00 52 1006.4
20260504224550 73 196 4.3 11.3 0.00 0.00 0.00 51 1006.6
20260504224019 73 161 4.3 9.6 0.00 0.00 0.00 51 1006.6
20260504223519 73 229 4.3 9.6 0.00 0.00 0.00 50 1006.8
20260504223036 74 236 2.6 8.7 0.00 0.00 0.00 51 1006.8
20260504222519 74 191 3.5 10.4 0.00 0.00 0.00 52 1006.7
20260504222018 73 236 4.3 10.4 0.00 0.00 0.00 52 1006.7
20260504221534 73 219 3.5 10.4 0.00 0.00 0.00 52 1006.7
20260504221020 72 221 3.5 10.4 0.00 0.00 0.00 53 1006.7
20260504220518 72 169 3.5 9.6 0.00 0.00 0.00 53 1006.8
20260504220035 72 205 3.5 9.6 0.00 0.00 0.00 53 1006.7
20260504215522 72 175 4.3 9.6 0.00 0.00 0.00 53 1006.7
20260504215017 72 210 4.3 9.6 0.00 0.00 0.00 53 1006.8
20260504214543 72 216 4.3 13.9 0.00 0.00 0.00 52 1007.1
20260504214019 72 221 3.5 13.9 0.00 0.00 0.00 53 1007.2
20260504213519 73 236 7.0 13.9 0.00 0.00 0.00 51 1007.3
20260504213036 73 205 5.2 14.8 0.00 0.00 0.00 52 1007.2
20260504212519 73 178 6.1 14.8 0.00 0.00 0.00 52 1007.3
20260504212019 73 226 5.2 14.8 0.00 0.00 0.00 53 1007.3
20260504211537 72 213 4.3 14.8 0.00 0.00 0.00 54 1007.3
20260504211018 72 196 7.8 17.4 0.00 0.00 0.00 53 1007.5
20260504210522 72 219 7.0 17.4 0.00 0.00 0.00 53 1007.5
20260504210052 71 153 7.0 14.8 0.00 0.00 0.00 56 1007.6
20260504205519 71 250 2.6 14.8 0.00 0.00 0.00 58 1007.7
20260504205022 71 221 6.1 13.9 0.00 0.00 0.00 57 1007.6
20260504204531 70 209 2.6 10.4 0.00 0.00 0.00 58 1007.8
20260504204018 70 195 4.3 10.4 0.00 0.00 0.00 57 1007.9
20260504203518 70 232 2.6 11.3 0.00 0.00 0.00 59 1008.1
20260504203043 70 244 3.5 11.3 0.00 0.00 0.00 60 1008.2
20260504202519 69 273 1.7 11.3 0.00 0.00 0.00 62 1008.3
20260504202018 69 171 3.5 8.7 0.00 0.00 0.00 65 1008.2
20260504201539 68 269 2.6 10.4 0.00 0.00 0.00 67 1008.3
20260504201016 67 210 4.3 10.4 0.00 0.00 0.00 67 1008.3
20260504200519 67 243 4.3 7.8 0.00 0.00 0.00 69 1008.2
20260504200049 66 182 3.5 7.8 0.00 0.00 0.00 70 1008.2
20260504195520 65 171 2.6 9.6 0.00 0.00 0.00 71 1008.3
20260504195021 65 239 3.5 9.6 0.00 0.00 0.00 70 1008.2
20260504194536 65 182 3.5 9.6 0.00 0.00 0.00 71 1008.4
20260504194022 65 203 3.5 7.0 0.00 0.00 0.00 71 1008.6
20260504193524 65 205 2.6 8.7 0.00 0.00 0.00 70 1008.5
20260504193043 65 93 1.7 8.7 0.00 0.00 0.00 70 1008.4
20260504192521 65 225 1.7 8.7 0.00 0.00 0.00 69 1009.0
20260504192019 66 236 4.3 8.7 0.00 0.00 0.00 69 1009.0
20260504191539 66 183 2.6 13.9 0.00 0.00 0.00 68 1008.8
20260504191023 66 160 2.6 13.9 0.00 0.00 0.00 65 1008.8
20260504190522 67 169 7.0 15.6 0.00 0.00 0.00 62 1009.6
20260504190040 67 200 7.0 15.6 0.00 0.00 0.00 60 1009.9
20260504185518 68 250 5.2 12.2 0.00 0.00 0.00 60 1009.6
20260504185022 68 232 5.2 11.3 0.00 0.00 0.00 59 1009.4
20260504184539 69 196 6.1 12.2 0.00 0.00 0.00 59 1009.6
20260504184022 69 226 5.2 13.9 0.00 0.00 0.00 59 1009.2
20260504183522 69 244 6.1 18.2 0.00 0.00 0.00 59 1009.3
20260504183037 70 250 7.0 18.2 0.00 0.00 0.00 57 1009.1
20260504182521 70 178 6.1 18.2 0.00 0.00 0.00 55 1008.7
20260504182021 70 255 6.1 24.3 0.00 0.00 0.00 56 1008.6
20260504181540 71 198 10.4 24.3 0.00 0.00 0.00 56 1008.6
20260504181024 71 169 6.1 14.8 0.00 0.00 0.00 58 1008.6
20260504180518 70 234 7.0 11.3 0.00 0.00 0.00 59 1008.3
20260504180039 70 120 5.2 18.2 0.00 0.00 0.00 59 1008.3
20260504175519 70 257 7.8 18.2 0.00 0.00 0.00 57 1008.2
20260504175019 70 239 5.2 15.6 0.00 0.00 0.00 59 1008.1
20260504174536 69 187 8.7 20.0 0.00 0.00 0.00 59 1008.2
20260504174021 69 187 7.0 20.0 0.00 0.00 0.00 60 1008.3
20260504173522 69 187 7.0 13.9 0.00 0.00 0.00 60 1008.4
20260504173035 68 175 5.2 15.6 0.00 0.00 0.00 59 1008.3
20260504172523 68 148 7.8 15.6 0.00 0.00 0.00 58 1008.5
20260504172022 68 190 5.2 14.8 0.00 0.00 0.00 59 1008.5
20260504171535 68 177 6.1 12.2 0.00 0.00 0.00 62 1008.6
20260504171022 67 193 6.1 12.2 0.00 0.00 0.00 63 1008.6
20260504170522 66 213 5.2 11.3 0.00 0.00 0.00 64 1008.7
20260504151021 64 153 4.3 10.4 0.00 0.00 0.00 64 1009.4
20260504150519 63 165 3.5 13.0 0.00 0.00 0.00 63 1009.3
20260504141022 60 210 7.8 14.8 0.00 0.00 0.00 65 1009.6
20260504140521 60 207 7.8 14.8 0.00 0.00 0.00 65 1009.7
20260504130520 55 198 5.2 12.2 0.00 0.00 0.00 73 1009.9
20260504110519 49 175 2.6 7.8 0.00 0.00 0.00 72 1009.8
20260504100525 49 191 3.5 8.7 0.00 0.00 0.00 71 1010.2
20260504081539 49 188 2.6 6.1 0.00 0.00 0.00 70 1011.0
20260504081021 49 205 2.6 7.0 0.00 0.00 0.00 70 1011.0
20260504080522 49 178 2.6 7.0 0.00 0.00 0.00 70 1011.0
20260504050518 52 187 4.3 10.4 0.00 0.00 0.00 62 1012.5
20260504045519 52 160 4.3 13.0 0.00 0.00 0.00 61 1012.4
20260504045025 52 171 4.3 11.3 0.00 0.00 0.00 61 1012.6
20260504044537 52 182 5.2 11.3 0.00 0.00 0.00 60 1012.5
20260504044021 52 195 4.3 10.4 0.00 0.00 0.00 60 1012.5
20260504043519 53 172 5.2 11.3 0.00 0.00 0.00 60 1012.6
20260504043046 53 178 4.3 11.3 0.00 0.00 0.00 59 1012.7
20260504042519 53 169 5.2 11.3 0.00 0.00 0.00 59 1012.7
20260504042019 53 177 4.3 11.3 0.00 0.00 0.00 59 1012.7
20260504041536 53 182 5.2 11.3 0.00 0.00 0.00 59 1012.7
20260504041018 53 195 3.5 10.4 0.00 0.00 0.00 58 1012.8
20260504040518 53 208 4.3 12.2 0.00 0.00 0.00 58 1012.9
20260504040039 54 178 5.2 12.2 0.00 0.00 0.00 58 1013.0
20260504035518 54 175 5.2 12.2 0.00 0.00 0.00 58 1013.0
20260504035019 54 178 5.2 12.2 0.00 0.00 0.00 57 1013.0
20260504034545 54 157 5.2 10.4 0.00 0.00 0.00 57 1013.0
20260504034022 54 171 4.3 10.4 0.00 0.00 0.00 57 1013.1
20260504033519 54 147 4.3 10.4 0.00 0.00 0.00 56 1013.1
20260504033036 54 203 5.2 9.6 0.00 0.00 0.00 56 1013.2
20260504032519 55 195 4.3 10.4 0.00 0.00 0.00 56 1013.1
20260504032019 55 175 4.3 10.4 0.00 0.00 0.00 55 1013.1
20260504031537 54 198 3.5 9.6 0.00 0.00 0.00 55 1013.2
20260504031018 54 162 3.5 8.7 0.00 0.00 0.00 55 1013.2
20260504030518 54 153 2.6 7.8 0.00 0.00 0.00 55 1013.3
20260504030046 54 184 2.6 6.1 0.00 0.00 0.00 55 1013.3
20260504025518 54 192 2.6 7.0 0.00 0.00 0.00 55 1013.4
20260504025021 54 217 3.5 7.0 0.00 0.00 0.00 55 1013.5
20260504024536 54 131 2.6 7.0 0.00 0.00 0.00 54 1013.4
20260504024019 54 0 1.7 6.1 0.00 0.00 0.00 54 1013.6
20260504023519 54 171 1.7 5.2 0.00 0.00 0.00 54 1013.6
20260504023038 54 193 2.6 6.1 0.00 0.00 0.00 54 1013.6
20260504022519 54 190 1.7 6.1 0.00 0.00 0.00 54 1013.6
20260504022018 54 178 2.6 6.1 0.00 0.00 0.00 55 1013.6
20260504021544 54 212 2.6 6.1 0.00 0.00 0.00 55 1013.6
20260504021018 54 218 1.7 5.2 0.00 0.00 0.00 55 1013.7
20260504020519 54 153 1.7 5.2 0.00 0.00 0.00 55 1013.7
20260504020038 54 218 1.7 3.5 0.00 0.00 0.00 55 1013.6
20260504015519 54 178 0.9 3.5 0.00 0.00 0.00 55 1013.6
20260504015020 54 171 0.9 4.3 0.00 0.00 0.00 55 1013.5
20260504014536 54 153 1.7 4.3 0.00 0.00 0.00 56 1013.4
20260504014018 55 160 1.7 4.3 0.00 0.00 0.00 56 1013.3
20260504013518 55 178 0.9 4.3 0.00 0.00 0.00 56 1013.3
20260504013037 55 111 1.7 5.2 0.00 0.00 0.00 56 1013.3
20260504012518 55 157 0.9 5.2 0.00 0.00 0.00 57 1013.3
20260504012019 55 146 1.7 4.3 0.00 0.00 0.00 57 1013.3
20260504011536 55 126 1.7 4.3 0.00 0.00 0.00 57 1013.3
20260504011021 56 169 0.9 4.3 0.00 0.00 0.00 55 1013.3
20260504010517 56 141 1.7 4.3 0.00 0.00 0.00 54 1013.3